Location: Auckland
(36.8670°S, 174.7670°E)
Time: 03:47:25
(UTC+12:00)

ISS - Visible Passes

Search period start: 21 April 2024 00:00
Search period end: 01 May 2024 00:00
Orbit: 412 x 418 km, 51.6° (Epoch: 20 April)

Date Brightness Start Highest point End Pass type
(mag) Time Alt. Az. Time Alt. Az. Time Alt. Az.
21 Apr -0.9 18:44:10 10° SW 18:45:08 11° SSW 18:46:05 10° S visible
28 Apr -1.0 19:29:31 10° SSW 19:30:00 12° S 19:30:00 12° S visible
29 Apr -1.5 18:40:57 10° S 18:42:31 13° SSE 18:42:56 12° SSE visible
30 Apr -1.6 19:27:24 10° SW 19:28:49 20° SSW 19:28:49 20° SSW visible
